{"data":{"norad_id":53151,"intl_designator":"2022-083V","name":"STARLINK-4040","alt_names":[],"object_type":"PAYLOAD","status":"ACTIVE","operator":null,"country":"US","launch_date":"2022-07-17","launch_site_code":"AFETR","launch_vehicle":null,"mission":null,"orbit_class":"UNKNOWN","rcs_meters":null,"size_class":null,"mass_kg":null,"dimensions":null,"purposes":["comms"],"wikipedia_slug":null,"has_3d_model":false,"image_url":null,"decayed_at":null,"tle_current":{"epoch":"2026-09-19T22:34:01.248672Z","epoch_age_seconds":120529,"freshness":"FRESH","line1":"1 53151U 22083V   26262.94029223  .00000337  00000+0  20557-4 0  9994","line2":"2 53151  53.1615 359.4130 0001221  64.9354 295.1775 15.35403198230853","mean_motion":15.35403198,"eccentricity":0.0001221,"inclination_deg":53.1615,"raan_deg":359.413,"arg_perigee_deg":64.9354,"mean_anomaly_deg":295.1775,"bstar":2.0557e-5,"rev_number":23085,"period_min":93.78644006185,"perigee_km":458.88824521908,"apogee_km":460.5580506672,"semimajor_km":6837.8601479431,"source":"CELESTRAK","updated_at":"2026-09-20T09:00:40.181731Z"}}}